AirNav   Air Wisconsin Up To $57,000 Bonus
 
 822 users online  

PS01 Sterling Heliport
Croydon, Pennsylvania, USA

GOING TO CROYDON?


FAA INFORMATION EFFECTIVE 26 MARCH 2020

Location

FAA Identifier: PS01
Lat/Long: 40-04-52.6000N 074-53-39.2000W
40-04.876667N 074-53.653333W
40.0812778,-74.8942222
(estimated)
Elevation: 24 ft. / 7 m (estimated)
From city: 1 mile SE of CROYDON, PA
Time zone: UTC -4 (UTC -5 during Standard Time)
Zip code: 19021

Heliport Operations

Heliport use: Private use. Permission required prior to landing
Activation date: 10/2006
Control tower: no
ARTCC: NEW YORK CENTER
FSS: WILLIAMSPORT FLIGHT SERVICE STATION
Attendance: MON-FRI 0800-1700
Wind indicator: yes
Segmented circle: no

Heliport Communications

WX ASOS at PNE (5 nm W): 121.15 (215-677-0146)
WX ASOS at VAY (9 nm S): 119.325 (609-267-1176)
WX ASOS at TTN (12 nm N): 126.775 (609-538-8690)
WX AWOS-3 at LOM (17 nm W): 118.925 (215-646-1068)
WX ASOS at DYL (18 nm NW): 118.875 (215-345-0392)

Nearby radio navigation aids

VOR radial/distance  VOR name  Freq  Var
ARDr187/10.3YARDLEY VOR/DME108.2010W
GXUr299/14.3MC GUIRE VORTAC110.6012W
RBVr258/19.7ROBBINSVILLE VORTAC113.8010W
CYNr317/26.5COYLE VORTAC113.4010W
SBJr203/30.9SOLBERG VOR/DME112.9010W
PTWr114/31.7POTTSTOWN VORTAC116.5009W
OODr045/32.7WOODSTOWN VORTAC112.8010W
VCNr016/32.8CEDAR LAKE VOR/DME115.2010W
COLr259/36.4COLTS NECK VOR/DME115.4011W
MXEr084/37.0MODENA VORTAC113.2009W

 
NDB name  Hdg/Dist  Freq  Var  ID
AMBLER110/18.127512WING .. -. --.
LAKEHURST286/25.839611WNEL -. . .-..

Heliport Services

Airframe service: MAJOR
Powerplant service: MAJOR

Runway Information

Helipad H1

Dimensions: 50 x 50 ft. / 15 x 15 m
Surface: concrete, in good condition
Traffic pattern: leftleft

Heliport Ownership and Management from official FAA records

Ownership: Privately-owned
Owner: STERLING HELICOPTER
1226 RIVER ROAD
CROYDON, PA 19021
Phone 215-271-2510
Manager: PHIL BIDDEN
1226 RIVER ROAD
CROYDON, PA 19021
Phone 215-271-2510

Additional Remarks

CALL PRIOR TO USE FOR PERMISSION, NOISE ABATEMENT PROC & PREF FLT ROUTE.
AVOID OVR FLT OF HOMES & SCHOOL 0.5 NM NE.
FOR CD CTC PHILADELPHIA APCH AT 800-354-9884.

Instrument Procedures

There are no published instrument procedures at PS01.

Some nearby airports with instrument procedures:

KPNE - Northeast Philadelphia Airport (5 nm W)
KVAY - South Jersey Regional Airport (9 nm S)
N14 - Flying W Airport (10 nm SE)
KTTN - Trenton Mercer Airport (12 nm N)
KWRI - McGuire Field (Joint Base Mc Guire Dix Lakehurst) Airport (14 nm E)
N87 - Trenton-Robbinsville Airport (16 nm NE)
KLOM - Wings Field Airport (17 nm W)
19N - Camden County Airport (18 nm S)
KDYL - Doylestown Airport (18 nm NW)
 
Loc | Ops | Rwys | IFR | FBO | Links
Com | Nav | Svcs | Stats | Notes
Area around PS01 (Sterling Heliport)
 
Road maps at: MapQuest Bing Google
 
Aerial photo
No photo
 
Sectional chart

 
Airport distance calculator
Flying to Sterling Heliport? Find the distance to fly.

From to PS01

Sunrise and sunset
Times for 05-Apr-2020
 Local
(UTC-4)
 Zulu
(UTC)
Morning civil twilight06:0910:09
Sunrise06:3710:37
Sunset19:2823:28
Evening civil twilight19:5523:55

Current date and time
Zulu (UTC)  05-Apr-2020 15:30:55
Local (UTC-4)  05-Apr-2020 11:30:55
 
METAR
KPNE 
6nm W 
051454Z 29008KT 10SM OVC070 16/08 A3008 RMK AO2 SLP186 T01610078 51002
KVAY 
9nm S 
ASOS 119.325 609-267-1176
051454Z AUTO 26004KT 10SM OVC070 14/08 A3007 RMK AO2 SLP183 T01440078 50001
KTTN 
13nm N 
ASOS 133.70 609-538-8690
051453Z 26005KT 10SM OVC065 13/08 A3006 RMK AO2 SLP174 T01330078 51003
KWRI 
15nm E 
051456Z AUTO 29007KT 10SM BKN070 BKN170 15/07 A3007 RMK AO2 SLP183 T01500073 51002 $
KLOM 
17nm W 
051515Z AUTO 26008KT 10SM OVC070 15/07 A3007 RMK AO2 T01470070
KDYL 
18nm NW 
051454Z AUTO 26006KT 10SM OVC065 14/06 A3006 RMK AO2 SLP179 T01440061 50003
TAF
KPNE 
6nm W 
051329Z 0513/0612 26006KT P6SM BKN060 FM051900 26006KT P6SM BKN070 BKN250 FM060400 VRB04KT P6SM VCSH SCT030 OVC040 FM060700 34008KT P6SM SCT025 BKN035
KTTN 
13nm N 
051329Z 0513/0612 27006KT P6SM BKN060 FM051900 27006KT P6SM SCT070 BKN250 FM060400 VRB04KT P6SM VCSH SCT030 OVC040 FM061100 36008KT P6SM FEW030
KWRI 
15nm E 
051000Z 0510/0616 24004KT 9999 OVC040 QNH2998INS BECMG 0605/0606 26008KT 9000 -SHRA BR BKN020 BKN040 QNH2999INS BECMG 0609/0610 36009KT 9999 NSW SCT040 BKN070 QNH3001INS TX18/0520Z TN04/0510Z
NOTAMs
Click for the latest NOTAMs
NOTAMs are issued by the DoD/FAA and will open in a separate window not controlled by AirNav.

 

 
 

Would you like to see your business listed on this page?

 If your business provides an interesting product or service to pilots, flight crews, aircraft, or users of the Sterling Heliport, you should consider listing it here.  To start the listing process, click on the button below
 
Add a business
 

Other Pages about Sterling Heliport

Update a link
 
Copyright © AirNav, LLC. All rights reserved. Privacy Policy  Contact